{"data":{"norad_id":38087,"epoch":"2026-05-25T03:38:17.866752Z","epoch_age_seconds":62229,"freshness":"FRESH","line1":"1 38087U 12007A   26145.15159568 -.00000170  00000+0  00000+0 0  9991","line2":"2 38087   0.0265  24.2197 0002402  47.0153 204.0992  1.00272253 51996","mean_motion":1.00272253,"eccentricity":0.0002402,"inclination_deg":0.0265,"raan_deg":24.2197,"arg_perigee_deg":47.0153,"mean_anomaly_deg":204.0992,"bstar":0,"rev_number":5199,"period_min":1436.0902013441,"perigee_km":35776.335827208,"apogee_km":35796.591701416,"semimajor_km":42164.600764312,"source":"CELESTRAK","updated_at":"2026-05-25T13:38:14.505435Z"}}